Regional Weather Roundup
Issued by NWS

Home | Current Version | Previous Version | Graphics & Text | Print | Product List | Glossary On
Versions: 1 2 3 4 5 6 7 8 9 10 11 12 13 14 15 16 17 18 19 20 21 22 23 24 25 26 27 28 29 30 31 32 33 34 35 36 37 38 39 40 41 42 43 44 45 46 47 48 49 50
000
ASUS43 KIND 180159
RWRIN

WEATHER ROUNDUP FOR INDIANA
NATIONAL WEATHER SERVICE INDIANAPOLIS IN
900 PM EST WED JAN 17 2018

NOTE: "FAIR" INDICATES FEW OR NO CLOUDS BELOW 12,000 FEET WITH NO
SIGNIFICANT WEATHER AND/OR OBSTRUCTIONS TO VISIBILITY.

* - STATION DOES NOT REPORT WEATHER SUCH AS PRECIPITATION OR FOG.

+ - STATION NOT QUALITY CONTROLLED BY THE NATIONAL WEATHER SERVICE.
    USE DATA WITH CAUTION...ESPECIALLY DEWPOINT AND RELATIVE
    HUMIDITY OBSERVATIONS.

INZ001>003-010>013-019-020-180300-
NORTHWEST INDIANA

CITY           SKY/WX    TMP DP  RH WIND       PRES   REMARKS
GARY /AIRPORT/ PTCLDY    18   9  68 SW17G30   30.34F WCI   2
KNOX *+        FAIR      14  10  85 SW15      30.36F WCI  -1
MICHIGAN CITY+ FAIR      18   9  68 SW14G21   30.33F WCI   4
MONTICELLO +   FAIR      13   8  79 SW14      30.41F WCI  -2

$$

LMZ046-743>745-180300-
SOUTHERN LAKE MICHIGAN

STATION/POSITION TIME  TEMP    WIND        PRES    WAVE
                       AIR SEA DIR/SP/G            HT
                 (UTC) (F)     (DEG/KT/KT) (MB)    (FT)
BURNS HARBOR     0140   16     210/ 19/ 24 1027.4F
MICHIGAN CITY    0130   16     200/ 21/ 26   N/A

$$

INZ004-005-014>016-021>024-180300-
NORTH CENTRAL INDIANA

CITY           SKY/WX    TMP DP  RH WIND       PRES   REMARKS
ELKHART        FAIR      16   9  73 SW12G17   30.32F WCI   3
GOSHEN         FAIR      13   8  81 SW18G29   30.32F WCI  -4
PERU/GRISSOM   MOCLDY    11   8  88 SW15      30.38F WCI  -6
SOUTH BEND     FAIR      13   8  81 SW15      30.32F WCI  -3

$$

INZ006>009-017-018-025>027-180300-
NORTHEAST INDIANA

CITY           SKY/WX    TMP DP  RH WIND       PRES   REMARKS
FORT WAYNE     FAIR      13   8  81 SW17      30.36F WCI  -4
KENDALLVILLE + FAIR      13   8  81 SW15      30.32F WCI  -3

$$

INZ028-029-035-036-043>045-051>053-180300-
WEST CENTRAL INDIANA

CITY           SKY/WX    TMP DP  RH WIND       PRES   REMARKS
GREENCASTLE +  FAIR      10   5  79 SW3       30.48F
LAFAYETTE      FAIR      12   8  84 SW7       30.44F WCI   1
TERRE HAUTE    FAIR      10   3  73 SW6       30.51F WCI   0

$$

INZ030>032-037>040-046>048-054>057-064-065-180300-
CENTRAL INDIANA

CITY           SKY/WX    TMP DP  RH WIND       PRES   REMARKS
COLUMBUS       CLEAR     12   3  67 SW6       30.50F WCI   3
INDIANAPOLIS   FAIR      11   5  77 SW10      30.47F WCI  -3
-EAGLE CREEK   FAIR      12   5  73 SW8       30.45F WCI   0
MT COMFORT *+  FAIR      12   9  85 SW10      30.45F WCI  -1
SHELBYVILLE    FAIR      13   5  70 SW10      30.47S WCI   0

$$

INZ033-034-041-042-049-050-058-059-180300-
EAST CENTRAL INDIANA

CITY           SKY/WX    TMP DP  RH WIND       PRES   REMARKS
MUNCIE         FAIR      15   7  70 SW8       30.40F WCI   4
RICHMOND +     FAIR      10   7  85 SW9       30.42F WCI  -2

$$

INZ060-061-067>069-081>083-085>088-180300-
SOUTHWEST INDIANA

CITY           SKY/WX    TMP DP  RH WIND       PRES   REMARKS
EVANSVILLE     FAIR      11   6  81 CALM      30.58F
HUNTINGBURG +  FAIR       6   3  87 S6        30.56F WCI  -4

$$

INZ062-063-066-070>080-084-089>092-180300-
SOUTH CENTRAL AND SOUTHEAST INDIANA

CITY           SKY/WX    TMP DP  RH WIND       PRES   REMARKS
BLOOMINGTON    FAIR       8   2  76 SW7       30.49F WCI  -3
FRENCH LICK *+ FAIR      10   3  72 CALM      30.52F
MADISON *+     FAIR      14   9  79 W3        30.52S
SEYMOUR +      FAIR      14   5  67 SW6       30.52  WCI   5

$$





USA.gov is the U.S. government's official web portal to all federal, state and local government web resources and services.